This is the latest recevied weather packets stored in our database for station/object F4GQK-13. If no packets are shown the sender has not sent any weather packets the latest 10 day(s).
| Time | Temp. | Humidity | Pressure | Rain* | Wind** | Luminosity | Snow |
|---|---|---|---|---|---|---|---|
| 1777620905 | 14.44° C | 56% | 1022.9 hPa | 0 mm | - | 291 W/m² | - |
| 1777620604 | 13.89° C | 55% | 1023.1 hPa | 0 mm | - | 276 W/m² | - |
| 1777620305 | 13.89° C | 55% | 1023.3 hPa | 0 mm | - | 263 W/m² | - |
| 1777620004 | 13.89° C | 55% | 1023.1 hPa | 0 mm | - | 250 W/m² | - |
| 1777619705 | 13.89° C | 55% | 1023.2 hPa | 0 mm | - | 236 W/m² | - |
| 1777619405 | 13.89° C | 56% | 1022.9 hPa | 0 mm | - | 234 W/m² | - |
| 1777619105 | 13.89° C | 57% | 1022.8 hPa | 0 mm | - | 264 W/m² | - |
| 1777618805 | 13.33° C | 56% | 1022.7 hPa | 0 mm | - | 280 W/m² | - |
| 1777618505 | 13.33° C | 56% | 1022.9 hPa | 0 mm | - | 281 W/m² | - |
| 1777618205 | 12.78° C | 57% | 1022.8 hPa | 0 mm | - | 263 W/m² | - |
| 1777617905 | 12.22° C | 58% | 1022.9 hPa | 0 mm | - | 224 W/m² | - |
| 1777617605 | 12.22° C | 58% | 1022.7 hPa | 0 mm | - | 175 W/m² | - |
| 1777617304 | 12.22° C | 58% | 1022.8 hPa | 0 mm | - | 146 W/m² | - |
| 1777617004 | 11.67° C | 58% | 1022.5 hPa | 0 mm | - | 134 W/m² | - |
| 1777616705 | 11.67° C | 59% | 1022.6 hPa | 0 mm | - | 143 W/m² | - |
| 1777616405 | 11.67° C | 60% | 1022.7 hPa | 0 mm | - | 134 W/m² | - |
| 1777616105 | 11.67° C | 59% | 1022.5 hPa | 0 mm | - | 104 W/m² | - |
| 1777615805 | 11.11° C | 59% | 1022.6 hPa | 0 mm | - | 94 W/m² | - |
| 1777615505 | 11.11° C | 59% | 1022.6 hPa | 0 mm | - | 92 W/m² | - |
| 1777615205 | 11.11° C | 60% | 1022.4 hPa | 0 mm | - | 103 W/m² | - |
| 1777614905 | 10.56° C | 61% | 1022.4 hPa | 0 mm | - | 101 W/m² | - |
| 1777614605 | 10.56° C | 61% | 1022.7 hPa | 0 mm | - | 89 W/m² | - |
| 1777614305 | 10.56° C | 61% | 1022.4 hPa | 0 mm | - | 76 W/m² | - |
| 1777614005 | 10° C | 61% | 1022.1 hPa | 0 mm | - | 67 W/m² | - |
| 1777613705 | 10° C | 61% | 1022.2 hPa | 0 mm | - | 60 W/m² | - |
* Rain latest hour (hover to see other rain measurements)
** Current wind speed in m/s (hover to see current wind gust speed)